Location: C�mpuri de-Sus
(45.9500°N, 22.5500°E)
Time: 04:19:59
(UTC+00:00)

SL-8 R/B - Pass Details

Date: 24 October 2021
Orbit: 656 x 667 km, 48.4° (Epoch: 30 November)

Event Time Altitude Azimuth Distance (km) Brightness Sun altitude
Rises 16:06:25 0° 255° (WSW) 2,977 9.5 -7.3°
Reaches altitude 10° 16:08:45 10° 256° (WSW) 2,068 8.0 -7.7°
Maximum altitude 16:13:32 82° 344° (NNW) 671 3.7 -8.5°
Enters shadow 16:18:04 12° 72° (ENE) 1,968 5.5 -9.3°
